www.pogodaiklimat.ru

Погода и климат >> Архив погоды >> Мавритания >> Akjoujt


ПОГОДА в Akjoujt

  • Прогноз погоды в Akjoujt
  • Монитор погоды в Akjoujt
  • Климат города

АРХИВ ПОГОДЫ в Akjoujt

Время (UTC), дата Ветер
(напр.,м/с)
 
Видим.   Явления Облачность Т
(С)
Тd
(С)
f
(%)
Тe
(С)
Тes
(С)
Комфортность P
(гПа)
Po
(гПа)
Тmin
(С)
Tmax
(С)
R
(мм)
R24
(мм)
S
(см)
06 12.12 С 4 10 км ясно +16.2 +3.0 41 +16 +16 1012.5 999.8 +16.1
12 12.12 СВ 6 10 км ясно +24.5 -0.6 19 +23 +27 комфорт 1013.7 1000.0
15 12.12 В 6 10 км ясно +28.3 -1.2 15 +26 +29 жарко 1011.2 997.6
18 12.12 С 6 10 км ясно +25.8 +1.2 20 +24 +24 комфорт 1012.2 998.5 +28.3
09 13.12 СВ 6 5000 м ясно +14.7 +10.0 73 +13 +14 1015.5 1001.9
12 13.12 С 10 2000 м пыльный позёмок ясно +19.4 +7.1 45 +19 +20 1017.7 1003.9
18 13.12 СВ 6 4000 м пыль ясно +20.8 +8.3 45 +22 +22 комфорт 1017.0 1003.1 +22.2
09 14.12 В 4 10 км ясно +14.0 +6.0 59 +13 +14 1018.2 1004.2
12 14.12 С 6 10 км ясно +22.7 +6.2 34 +23 +28 комфорт 1018.3 1004.4
15 14.12 СВ 8 4000 м пыль ясно +26.6 +3.9 23 +25 +27 комфорт 1016.7 1002.9
18 14.12 СВ 8 4000 м пыль ясно +25.0 +5.6 29 +25 +25 комфорт 1017.8 1003.9 +26.6
06 15.12 В 6 10 км ясно +15.6 +5.3 50 +14 +14 1018.2 1004.4 +15.6
09 15.12 СВ 6 10 км ясно +15.8 +6.0 52 +15 +15 1016.9 1004.0
12 15.12 СВ 6 6000 м ясно +24.2 +3.7 26 +24 +28 комфорт 1018.4 1004.7
18 15.12 С 8 4000 м пыль ясно +27.0 +3.0 21 +25 +25 комфорт 1017.3 1003.5 +28.1
09 16.12 СВ 6 10 км ясно +17.2 +7.2 52 +16 +17 1018.7 1004.9
12 16.12 СВ 6 10 км 6/0
[Ci sp]
+25.0 +2.4 23 +24 +28 комфорт 1018.2 1004.5
15 16.12 С 6 10 км 8/0
[Ci sp]
+27.9 +2.4 19 +26 +29 жарко 1017.4 1003.8
18 16.12 СВ 6 10 км 10/0
[Ci sp]
+26.6 +2.2 21 +25 +25 комфорт 1017.4 1003.8 +27.9
06 17.12 СВ 4 10 км ясно +15.0 +4.9 51 +14 +14 1018.2 1004.5 +15.0
09 17.12 СВ 4 10 км 8/0
[Ac As Ci sp]
+16.2 +5.6 49 +16 +17 1018.7 1004.8
12 17.12 С 6 10 км 8/0
[Ac As Ci sp]
+23.7 +12.0 48 +25 +28 комфорт 1017.5 1003.7
15 17.12 С 6 10 км 10/0
[Ci sp]
+26.3 +12.1 41 +28 +30 жарко 1016.4 1002.7
18 17.12 С 6 10 км 10/0
[Ac As]
+24.7 +10.4 41 +26 +26 жарко 1017.1 1003.3 +26.3
09 18.12 СВ 4 10 км 4/0
[Ac As Ci sp]
+17.0 +9.8 63 +17 +18 1017.9 1004.0
12 18.12 С 4 10 км 5/0
[Ci sp]
+24.2 +6.5 32 +24 +31 комфорт 1016.7 1003.0
18 18.12 С 4 10 км 6/0
[Ci sp]
+25.4 +10.8 40 +26 +27 жарко 1012.6 998.9 +27.3

 

Местоположение метеостанции Akjoujt (Мавритания): широта 19.75 долгота -14.36 высота над уровнем моря 120 м.

В архиве по умолчанию представлена погода в Akjoujt за последнюю неделю. Архивные данные за месяц целиком и за предыдущие месяцы, начиная с января 2011 года, Вы можете получить, выбрав интересующий диапазон дат из раскрывающегося списка и нажав кнопку "Ввод!".

Внимание! Время в таблицах - всемирное. Для получения местного времени необходимо прибавить поправку, которая в Akjoujt равна 0 ч.

Смотрите также архив погоды в соседних городах и на ближайших метеорологических станциях:

Погода в Atar (Мавритания) (161 км)
Погода в Nouakchott (Мавритания) (248 км)
Погода в Boutilimit (Мавритания) (249 км)
Погода в Nouadhibou (Мавритания) (308 км)
Погода в Tidjikja (Мавритания) (335 км)
Погода в Podor (Сенегал) (351 км)
Погода в Zouerate (Мавритания) (386 км)
Погода в Rosso (Мавритания) (393 км)
Погода в Kaedi (Мавритания) (410 км)
Погода в Kiffa (Мавритания) (467 км)

Пояснения к столбцам:

Ветер - указаны скорость ветра в м/с - средняя за 10 мин, порывы в срок и между сроками (в фигурных скобках) и направление, откуда дует ветер: С - северный, СВ - северо-восточный, В - восточный, ЮВ - юго-восточный, Ю - южный, ЮЗ - юго-западный, З - западный, СЗ - северо-западный.
Видимость - горизонтальная дальность видимости в метрах или километрах. При видимости от 1 до 10 км при отсутствии осадков обычно наблюдается дымка, при ухудшении видимости до 1 км и менее - туман. В сухую погоду видимость может ухудшаться дымом, пылью или мглою.
Явления - указаны атмосферные явления, наблюдавшиеся в срок или в последний час перед сроком; фигурными скобками обозначены явления, наблюдавшиеся между сроками (за 1-3 часа до срока); квадратными скобками обозначены град или гололедные отложения с указанием их диаметра в мм.
Облачность - указаны через наклонную черту общая и нижняя облачность в баллах и высота нижней границы облаков в метрах; квадратными скобками обозначены формы облаков: Ci - перистые, Cs - перисто-слоистые, Cc - перисто-кучевые, Ac - высококучевые, As - высокослоистые, Sc - слоисто-кучевые, Ns - слоисто-дождевые, Cu - кучевые, Cb - кучево-дождевые. Подробнее классификацию облаков см. в Атласе облаков (PDF).
T - Температура воздуха - температура, измеренная на высоте 2 м над землей.
Td - Температура точки росы - температура, при понижении до которой содержащийся в воздухе водяной пар достигнет насыщения.
f - Относительная влажность воздуха - влажноcть воздуха, измеренная на высоте 2 м над землей.
Te - Эффективная температура - температура, которую ощущает одетый по сезону человек в тени. Характеристика душности погоды. При расчете учитывается влияние влажности воздуха и скорости ветра на теплоощущения человека.
Tes - Эффективная температура на солнце - температура, которую ощущает человек, с поправкой на солнечный нагрев. Характеристика знойности погоды. Зависит от высоты солнца над горизонтом, облачности и скорости ветра. Ночью, в пасмурную погоду, а также при ветре 12 м/с и более поправка равна нулю.
P - Атмосферное давление - приведенное к уровню моря атмосферное давление.
Po - Атмосферное давление - измеренное на уровне метеостанции атмосферное давление.
Tmin - Минимальная температура - минимум температуры воздуха на высоте 2 м над землей.
Tmax - Максимальная температура - максимум температуры воздуха на высоте 2 м над землей.
R - Количество осадков - Количество выпавших осадков за период времени, мм. При наведении курсора мыши на число - период времени, за который выпало указанное количество осадков.
R24 - Количество осадков - Количество выпавших осадков за 24 часа, мм.
S - Снежный покров - Высота снежного покрова, см. При наведении курсора мыши на число - состояние снежного покрова и степень покрытия местности в баллах.